Location: Lane
(33.5226°N, 79.8788°W)
Time: 10:41:07
(UTC+00:00)

Altair - Pass Details

Date: 12 October 2022
Orbit: 1501 x 1682 km, 47.2° (Epoch: 30 November)

Event Time Altitude Azimuth Distance (km) Brightness Sun altitude
Rises 14:59:11 0° 304° (WNW) 4,887 9.7 39.1°
Reaches altitude 10° 15:02:23 10° 300° (WNW) 3,914 9.3 39.5°
Maximum altitude 15:12:06 55° 226° (SW) 1,954 8.7 40.8°
Drops below altitude 10° 15:21:51 10° 152° (SSE) 3,926 10.8 42.1°
Sets 15:25:05 0° 148° (SSE) 4,902 11.0 42.5°
